Time,TemperatureF,DewpointF,PressureIn,WindDirection,WindDirectionDegrees,WindSpeedMPH,WindSpeedGustMPH,Humidity,HourlyPrecipIn,Conditions,Clouds,dailyrainin,SoftwareType,DateUTC
2013-02-15 00:04:00,44.8,44.2,30.56,NNE,22,0.0,0.0,98,0.00,,---,0.00,VWS V14.01,2013-02-15 08:04:00,
2013-02-15 00:09:00,44.8,44.2,30.56,SW,225,0.0,0.0,98,0.00,,---,0.00,VWS V14.01,2013-02-15 08:09:00,
2013-02-15 00:14:00,44.8,44.2,30.56,NNE,22,0.0,0.0,98,0.00,,---,0.00,VWS V14.01,2013-02-15 08:14:00,
2013-02-15 00:19:00,44.6,44.1,30.56,NNE,22,0.0,0.0,98,0.00,,---,0.00,VWS V14.01,2013-02-15 08:19:00,
2013-02-15 00:25:00,44.6,43.8,30.56,ENE,68,0.0,0.0,97,0.00,,---,0.00,VWS V14.01,2013-02-15 08:25:00,
2013-02-15 00:30:00,44.6,43.8,30.56,NE,45,0.0,0.0,97,0.00,,---,0.00,VWS V14.01,2013-02-15 08:30:00,
2013-02-15 00:35:00,44.4,43.9,30.56,WNW,292,0.0,0.0,98,0.00,,---,0.00,VWS V14.01,2013-02-15 08:35:00,
2013-02-15 00:40:00,44.2,43.7,30.56,NW,315,0.0,0.0,98,0.00,,---,0.00,VWS V14.01,2013-02-15 08:40:00,
2013-02-15 00:45:00,44.2,43.7,30.56,NE,45,3.1,3.1,98,0.00,,---,0.00,VWS V14.01,2013-02-15 08:45:00,
2013-02-15 00:50:00,44.1,43.5,30.56,NNW,338,0.0,0.0,98,0.00,,---,0.00,VWS V14.01,2013-02-15 08:50:00,
2013-02-15 00:55:00,44.1,43.5,30.56,WSW,248,0.0,0.0,98,0.00,,---,0.00,VWS V14.01,2013-02-15 08:55:00,
2013-02-15 01:00:00,44.1,43.5,30.56,NE,45,0.0,0.0,98,0.00,,---,0.00,VWS V14.01,2013-02-15 09:00:00,
2013-02-15 01:05:00,43.9,43.3,30.56,NNE,22,0.0,0.0,98,0.00,,---,0.00,VWS V14.01,2013-02-15 09:05:00,
2013-02-15 01:10:00,43.9,43.3,30.56,NNE,22,0.0,0.0,98,0.00,,---,0.00,VWS V14.01,2013-02-15 09:10:00,
2013-02-15 01:15:00,43.9,43.3,30.56,NW,315,0.0,0.0,98,0.00,,---,0.00,VWS V14.01,2013-02-15 09:15:00,
2013-02-15 01:20:00,43.7,43.2,30.56,NW,315,0.0,0.0,98,0.00,,---,0.00,VWS V14.01,2013-02-15 09:20:00,
2013-02-15 01:25:00,43.7,43.2,30.56,NNE,22,0.0,0.0,98,0.00,,---,0.00,VWS V14.01,2013-02-15 09:25:00,
2013-02-15 01:30:00,43.7,43.2,30.59,NNE,22,0.0,0.0,98,0.00,,---,0.00,VWS V14.01,2013-02-15 09:30:00,
2013-02-15 01:35:00,43.7,43.2,30.59,WNW,292,0.0,0.0,98,0.00,,---,0.00,VWS V14.01,2013-02-15 09:35:00,
2013-02-15 01:40:00,43.7,43.2,30.59,WNW,292,0.0,0.0,98,0.00,,---,0.00,VWS V14.01,2013-02-15 09:40:00,
2013-02-15 01:45:00,43.7,43.2,30.56,WNW,292,0.0,0.0,98,0.00,,---,0.00,VWS V14.01,2013-02-15 09:45:00,
2013-02-15 01:50:00,43.7,43.2,30.56,WNW,292,0.0,0.0,98,0.00,,---,0.00,VWS V14.01,2013-02-15 09:50:00,
2013-02-15 01:55:00,43.7,43.2,30.56,WNW,292,0.0,0.0,98,0.00,,---,0.00,VWS V14.01,2013-02-15 09:55:00,
2013-02-15 02:00:00,43.7,43.2,30.56,WNW,292,0.0,0.0,98,0.00,,---,0.00,VWS V14.01,2013-02-15 10:00:00,
2013-02-15 02:05:00,43.7,43.2,30.56,WNW,292,0.0,0.0,98,0.00,,---,0.00,VWS V14.01,2013-02-15 10:05:00,
2013-02-15 02:10:00,43.7,43.2,30.56,North,0,0.0,0.0,98,0.00,,---,0.00,VWS V14.01,2013-02-15 10:10:00,
2013-02-15 02:15:00,43.7,43.2,30.56,WNW,292,0.0,0.0,98,0.00,,---,0.00,VWS V14.01,2013-02-15 10:15:00,
2013-02-15 02:21:00,43.7,43.2,30.56,North,0,0.0,0.0,98,0.00,,---,0.00,VWS V14.01,2013-02-15 10:21:00,
2013-02-15 02:26:00,43.7,43.2,30.56,NW,315,0.0,0.0,98,0.00,,---,0.00,VWS V14.01,2013-02-15 10:26:00,
2013-02-15 02:31:00,43.7,43.2,30.56,NW,315,0.0,0.0,98,0.00,,---,0.00,VWS V14.01,2013-02-15 10:31:00,
2013-02-15 02:36:00,43.7,43.2,30.56,NW,315,0.0,0.0,98,0.00,,---,0.00,VWS V14.01,2013-02-15 10:36:00,
2013-02-15 02:41:00,43.7,43.2,30.56,NW,315,0.0,0.0,98,0.00,,---,0.00,VWS V14.01,2013-02-15 10:41:00,
2013-02-15 02:46:00,43.7,43.2,30.56,NW,315,0.0,0.0,98,0.00,,---,0.00,VWS V14.01,2013-02-15 10:46:00,
2013-02-15 02:51:00,43.7,43.2,30.56,NW,315,0.0,0.0,98,0.00,,---,0.00,VWS V14.01,2013-02-15 10:51:00,
2013-02-15 02:56:00,43.7,43.2,30.56,North,0,0.0,0.0,98,0.00,,---,0.00,VWS V14.01,2013-02-15 10:56:00,
2013-02-15 03:01:00,43.7,43.2,30.56,ENE,68,0.0,0.0,98,0.00,,---,0.00,VWS V14.01,2013-02-15 11:01:00,
2013-02-15 03:06:00,43.7,43.2,30.56,ENE,68,0.0,0.0,98,0.00,,---,0.00,VWS V14.01,2013-02-15 11:06:00,
2013-02-15 03:11:00,43.7,43.2,30.56,WSW,248,0.0,0.0,98,0.00,,---,0.00,VWS V14.01,2013-02-15 11:11:00,
2013-02-15 03:16:00,43.5,43.0,30.53,WSW,248,0.0,0.0,98,0.00,,---,0.00,VWS V14.01,2013-02-15 11:16:00,
2013-02-15 03:21:00,43.5,43.0,30.53,SSW,202,0.0,0.0,98,0.00,,---,0.00,VWS V14.01,2013-02-15 11:21:00,
2013-02-15 03:26:00,43.5,43.0,30.53,West,270,0.0,0.0,98,0.00,,---,0.00,VWS V14.01,2013-02-15 11:26:00,
2013-02-15 03:31:00,43.5,43.0,30.50,NE,45,0.0,0.0,98,0.00,,---,0.00,VWS V14.01,2013-02-15 11:31:00,
2013-02-15 03:36:00,43.5,43.0,30.50,NE,45,0.0,0.0,98,0.00,,---,0.00,VWS V14.01,2013-02-15 11:36:00,
2013-02-15 03:41:00,43.3,42.8,30.50,NNW,338,0.0,0.0,98,0.00,,---,0.00,VWS V14.01,2013-02-15 11:41:00,
2013-02-15 03:46:00,43.3,42.8,30.50,ENE,68,0.0,0.0,98,0.00,,---,0.00,VWS V14.01,2013-02-15 11:46:00,
2013-02-15 03:51:00,43.3,42.8,30.50,NE,45,0.0,0.0,98,0.00,,---,0.00,VWS V14.01,2013-02-15 11:51:00,
2013-02-15 03:56:00,43.3,42.8,30.50,NW,315,0.0,0.0,98,0.00,,---,0.00,VWS V14.01,2013-02-15 11:56:00,
2013-02-15 04:01:00,43.2,42.6,30.50,NW,315,0.0,0.0,98,0.00,,---,0.00,VWS V14.01,2013-02-15 12:01:00,
2013-02-15 04:07:00,43.2,42.6,30.50,NW,315,0.0,0.0,98,0.00,,---,0.00,VWS V14.01,2013-02-15 12:07:00,
2013-02-15 04:12:00,43.2,42.6,30.50,NW,315,0.0,0.0,98,0.00,,---,0.00,VWS V14.01,2013-02-15 12:12:00,
2013-02-15 04:17:00,43.2,42.6,30.47,WNW,292,0.0,0.0,98,0.00,,---,0.00,VWS V14.01,2013-02-15 12:17:00,
2013-02-15 04:22:00,43.2,42.6,30.47,WNW,292,0.0,0.0,98,0.00,,---,0.00,VWS V14.01,2013-02-15 12:22:00,
2013-02-15 04:27:00,43.2,42.4,30.47,WNW,292,0.0,0.0,97,0.00,,---,0.00,VWS V14.01,2013-02-15 12:27:00,
2013-02-15 04:32:00,43.0,42.2,30.50,ENE,68,0.0,0.0,97,0.00,,---,0.00,VWS V14.01,2013-02-15 12:32:00,
2013-02-15 04:37:00,43.0,42.2,30.50,ENE,68,0.0,0.0,97,0.00,,---,0.00,VWS V14.01,2013-02-15 12:37:00,
2013-02-15 04:42:00,43.0,42.2,30.50,NNE,22,0.0,0.0,97,0.00,,---,0.00,VWS V14.01,2013-02-15 12:42:00,
2013-02-15 04:47:00,43.0,42.2,30.47,North,0,0.0,0.0,97,0.00,,---,0.00,VWS V14.01,2013-02-15 12:47:00,
2013-02-15 04:52:00,43.0,42.2,30.47,North,0,0.0,0.0,97,0.00,,---,0.00,VWS V14.01,2013-02-15 12:52:00,
2013-02-15 04:57:00,43.0,42.2,30.47,NW,315,0.0,0.0,97,0.00,,---,0.00,VWS V14.01,2013-02-15 12:57:00,
2013-02-15 05:02:00,43.0,42.2,30.47,NW,315,0.0,0.0,97,0.00,,---,0.00,VWS V14.01,2013-02-15 13:02:00,
2013-02-15 05:07:00,43.0,42.2,30.47,NW,315,0.0,0.0,97,0.00,,---,0.00,VWS V14.01,2013-02-15 13:07:00,
2013-02-15 05:12:00,43.0,42.2,30.47,NW,315,0.0,0.0,97,0.00,,---,0.00,VWS V14.01,2013-02-15 13:12:00,
2013-02-15 05:17:00,42.8,42.0,30.50,NW,315,0.0,0.0,97,0.00,,---,0.00,VWS V14.01,2013-02-15 13:17:00,
2013-02-15 05:22:00,42.8,42.0,30.50,NW,315,0.0,0.0,97,0.00,,---,0.00,VWS V14.01,2013-02-15 13:22:00,
2013-02-15 05:27:00,42.8,42.0,30.50,NW,315,0.0,0.0,97,0.00,,---,0.00,VWS V14.01,2013-02-15 13:27:00,
2013-02-15 05:32:00,42.8,42.0,30.50,SSE,158,0.0,0.0,97,0.00,,---,0.00,VWS V14.01,2013-02-15 13:32:00,
2013-02-15 05:37:00,42.8,42.0,30.50,ENE,68,0.0,0.0,97,0.00,,---,0.00,VWS V14.01,2013-02-15 13:37:00,
2013-02-15 05:42:00,42.8,42.0,30.50,ENE,68,0.0,0.0,97,0.00,,---,0.00,VWS V14.01,2013-02-15 13:42:00,
2013-02-15 05:47:00,42.8,42.0,30.50,ENE,68,0.0,0.0,97,0.00,,---,0.00,VWS V14.01,2013-02-15 13:47:00,
2013-02-15 05:52:00,42.8,42.0,30.50,ENE,68,0.0,0.0,97,0.00,,---,0.00,VWS V14.01,2013-02-15 13:52:00,
2013-02-15 05:57:00,42.6,42.1,30.50,ENE,68,0.0,0.0,98,0.00,,---,0.00,VWS V14.01,2013-02-15 13:57:00,
2013-02-15 06:02:00,42.6,42.1,30.47,ENE,68,0.0,0.0,98,0.00,,---,0.00,VWS V14.01,2013-02-15 14:02:00,
2013-02-15 06:08:00,42.6,42.1,30.47,South,180,0.0,0.0,98,0.00,,---,0.00,VWS V14.01,2013-02-15 14:08:00,
2013-02-15 06:13:00,42.6,42.1,30.47,WNW,292,0.0,0.0,98,0.00,,---,0.00,VWS V14.01,2013-02-15 14:13:00,
2013-02-15 06:18:00,42.6,41.8,30.47,WNW,292,0.0,0.0,97,0.00,,---,0.00,VWS V14.01,2013-02-15 14:18:00,
2013-02-15 06:23:00,42.6,41.8,30.47,WNW,292,0.0,0.0,97,0.00,,---,0.00,VWS V14.01,2013-02-15 14:23:00,
2013-02-15 06:28:00,42.4,41.7,30.47,WNW,292,0.0,0.0,97,0.00,,---,0.00,VWS V14.01,2013-02-15 14:28:00,
2013-02-15 06:33:00,42.4,41.7,30.47,WNW,292,0.0,0.0,97,0.00,,---,0.00,VWS V14.01,2013-02-15 14:33:00,
2013-02-15 06:38:00,42.4,41.7,30.47,WNW,292,0.0,0.0,97,0.00,,---,0.00,VWS V14.01,2013-02-15 14:38:00,
2013-02-15 06:43:00,42.4,41.7,30.47,WNW,292,0.0,0.0,97,0.00,,---,0.00,VWS V14.01,2013-02-15 14:43:00,
2013-02-15 06:48:00,42.4,41.7,30.47,WNW,292,0.0,0.0,97,0.00,,---,0.00,VWS V14.01,2013-02-15 14:48:00,
2013-02-15 06:53:00,42.4,41.7,30.47,WNW,292,0.0,0.0,97,0.00,,---,0.00,VWS V14.01,2013-02-15 14:53:00,
2013-02-15 06:58:00,42.4,41.7,30.47,WNW,292,0.0,0.0,97,0.00,,---,0.00,VWS V14.01,2013-02-15 14:58:00,
2013-02-15 07:03:00,42.4,41.7,30.47,WNW,292,0.0,0.0,97,0.00,,---,0.00,VWS V14.01,2013-02-15 15:03:00,
2013-02-15 07:08:00,42.4,41.9,30.47,WNW,292,0.0,0.0,98,0.00,,---,0.00,VWS V14.01,2013-02-15 15:08:00,
2013-02-15 07:13:00,42.4,41.9,30.47,NW,315,0.0,0.0,98,0.00,,---,0.00,VWS V14.01,2013-02-15 15:13:00,
2013-02-15 07:18:00,42.4,41.9,30.47,NW,315,0.0,0.0,98,0.00,,---,0.00,VWS V14.01,2013-02-15 15:18:00,
2013-02-15 07:23:00,42.4,41.9,30.47,NW,315,0.0,0.0,98,0.00,,---,0.00,VWS V14.01,2013-02-15 15:23:00,
2013-02-15 07:28:00,42.4,41.9,30.47,WNW,292,0.0,0.0,98,0.00,,---,0.00,VWS V14.01,2013-02-15 15:28:00,
2013-02-15 07:33:00,42.4,41.9,30.47,NW,315,0.0,0.0,98,0.00,,---,0.00,VWS V14.01,2013-02-15 15:33:00,
2013-02-15 07:38:00,42.6,42.1,30.47,NW,315,0.0,0.0,98,0.00,,---,0.00,VWS V14.01,2013-02-15 15:38:00,
2013-02-15 07:43:00,42.8,42.0,30.47,NW,315,0.0,0.0,97,0.00,,---,0.00,VWS V14.01,2013-02-15 15:43:00,
2013-02-15 07:49:00,42.8,42.0,30.47,NW,315,0.0,0.0,97,0.00,,---,0.00,VWS V14.01,2013-02-15 15:49:00,
2013-02-15 07:54:00,43.0,42.2,30.47,NE,45,0.0,0.0,97,0.00,,---,0.00,VWS V14.01,2013-02-15 15:54:00,
2013-02-15 07:59:00,43.0,42.2,30.44,NNE,22,0.0,0.0,97,0.00,,---,0.00,VWS V14.01,2013-02-15 15:59:00,
2013-02-15 08:04:00,43.0,42.2,30.44,South,180,0.0,0.0,97,0.00,,---,0.00,VWS V14.01,2013-02-15 16:04:00,
2013-02-15 08:09:00,43.2,42.4,30.44,NE,45,2.5,2.5,97,0.00,,---,0.00,VWS V14.01,2013-02-15 16:09:00,
2013-02-15 08:14:00,43.3,42.5,30.44,NNE,22,0.0,0.0,97,0.00,,---,0.00,VWS V14.01,2013-02-15 16:14:00,
2013-02-15 08:19:00,43.5,42.7,30.44,ENE,68,0.0,0.0,97,0.00,,---,0.00,VWS V14.01,2013-02-15 16:19:00,
2013-02-15 08:24:00,43.5,42.7,30.44,East,90,0.0,0.0,97,0.00,,---,0.00,VWS V14.01,2013-02-15 16:24:00,
2013-02-15 08:29:00,43.7,42.9,30.47,WNW,292,0.0,0.0,97,0.00,,---,0.00,VWS V14.01,2013-02-15 16:29:00,
2013-02-15 08:34:00,43.9,43.1,30.47,NNE,22,0.0,0.0,97,0.00,,---,0.00,VWS V14.01,2013-02-15 16:34:00,
2013-02-15 08:39:00,44.1,43.3,30.47,ENE,68,0.0,0.0,97,0.00,,---,0.00,VWS V14.01,2013-02-15 16:39:00,
2013-02-15 08:44:00,44.1,43.3,30.44,North,0,0.0,1.3,97,0.00,,---,0.00,VWS V14.01,2013-02-15 16:44:00,
2013-02-15 08:49:00,44.2,43.2,30.44,North,0,0.0,0.0,96,0.00,,---,0.00,VWS V14.01,2013-02-15 16:49:00,
2013-02-15 08:54:00,44.2,43.2,30.44,ENE,68,0.0,0.0,96,0.00,,---,0.00,VWS V14.01,2013-02-15 16:54:00,
2013-02-15 08:59:00,44.1,42.7,30.44,NNE,22,2.0,2.0,95,0.00,,---,0.00,VWS V14.01,2013-02-15 16:59:00,
2013-02-15 09:04:00,44.1,42.5,30.44,NE,45,0.0,1.6,94,0.00,,---,0.00,VWS V14.01,2013-02-15 17:04:00,
2013-02-15 09:09:00,44.2,42.6,30.44,NNE,22,0.0,2.7,94,0.00,,---,0.00,VWS V14.01,2013-02-15 17:09:00,
2013-02-15 09:14:00,44.4,42.8,30.44,WSW,248,0.0,0.0,94,0.00,,---,0.00,VWS V14.01,2013-02-15 17:14:00,
2013-02-15 09:19:00,44.6,42.7,30.44,SSW,202,0.0,0.0,93,0.00,,---,0.00,VWS V14.01,2013-02-15 17:19:00,
2013-02-15 09:24:00,45.0,43.3,30.44,NNE,22,0.0,1.6,94,0.00,,---,0.00,VWS V14.01,2013-02-15 17:24:00,
2013-02-15 09:29:00,45.1,43.2,30.44,NNE,22,0.0,0.0,93,0.00,,---,0.00,VWS V14.01,2013-02-15 17:29:00,
2013-02-15 09:34:00,45.1,43.2,30.44,West,270,1.3,1.3,93,0.00,,---,0.00,VWS V14.01,2013-02-15 17:34:00,
2013-02-15 09:39:00,45.5,43.6,30.44,ENE,68,0.0,0.0,93,0.00,,---,0.00,VWS V14.01,2013-02-15 17:39:00,
2013-02-15 09:44:00,46.0,43.8,30.44,SSE,158,0.0,0.0,92,0.00,,---,0.00,VWS V14.01,2013-02-15 17:44:00,
2013-02-15 09:49:00,46.2,44.0,30.44,WSW,248,0.0,1.6,92,0.00,,---,0.00,VWS V14.01,2013-02-15 17:49:00,
2013-02-15 09:54:00,46.2,43.5,30.44,West,270,0.0,0.0,90,0.00,,---,0.00,VWS V14.01,2013-02-15 17:54:00,
2013-02-15 09:59:00,46.4,43.3,30.44,SW,225,0.0,0.0,89,0.00,,---,0.00,VWS V14.01,2013-02-15 17:59:00,
2013-02-15 10:04:00,48.4,45.0,30.44,SSE,158,0.0,3.4,88,0.00,,---,0.00,VWS V14.01,2013-02-15 18:04:00,
2013-02-15 10:09:00,52.3,48.6,30.44,SSE,158,1.6,2.7,87,0.00,,---,0.00,VWS V14.01,2013-02-15 18:09:00,
2013-02-15 10:14:00,54.5,49.5,30.44,SSE,158,0.0,2.2,83,0.00,,---,0.00,VWS V14.01,2013-02-15 18:14:00,
2013-02-15 10:19:00,55.8,47.6,30.44,SE,135,2.7,2.7,74,0.00,,---,0.00,VWS V14.01,2013-02-15 18:19:00,
2013-02-15 10:24:00,57.0,48.5,30.44,SSE,158,2.7,2.7,73,0.00,,---,0.00,VWS V14.01,2013-02-15 18:24:00,
2013-02-15 10:29:00,57.9,48.2,30.44,South,180,1.3,2.9,70,0.00,,---,0.00,VWS V14.01,2013-02-15 18:29:00,
2013-02-15 10:34:00,58.6,47.7,30.44,South,180,1.6,1.6,67,0.00,,---,0.00,VWS V14.01,2013-02-15 18:34:00,
2013-02-15 10:39:00,59.5,47.8,30.44,South,180,0.0,0.9,65,0.00,,---,0.00,VWS V14.01,2013-02-15 18:39:00,
2013-02-15 10:44:00,60.6,48.8,30.44,WSW,248,0.0,0.0,65,0.00,,---,0.00,VWS V14.01,2013-02-15 18:44:00,
2013-02-15 10:49:00,60.6,47.1,30.44,South,180,0.9,2.5,61,0.00,,---,0.00,VWS V14.01,2013-02-15 18:49:00,
2013-02-15 10:54:00,61.5,47.1,30.44,SW,225,0.9,0.9,59,0.00,,---,0.00,VWS V14.01,2013-02-15 18:54:00,
2013-02-15 10:59:00,60.4,43.2,30.44,WSW,248,2.2,2.5,53,0.00,,---,0.00,VWS V14.01,2013-02-15 18:59:00,
2013-02-15 11:04:00,61.0,43.8,30.44,WSW,248,2.0,2.0,53,0.00,,---,0.00,VWS V14.01,2013-02-15 19:04:00,
2013-02-15 11:09:00,62.6,45.2,30.44,South,180,0.0,1.6,53,0.00,,---,0.00,VWS V14.01,2013-02-15 19:09:00,
2013-02-15 11:14:00,63.3,46.4,30.41,South,180,0.0,0.0,54,0.00,,---,0.00,VWS V14.01,2013-02-15 19:14:00,
2013-02-15 11:19:00,63.9,44.9,30.41,WSW,248,3.1,3.4,50,0.00,,---,0.00,VWS V14.01,2013-02-15 19:19:00,
2013-02-15 11:24:00,62.6,43.2,30.41,SW,225,1.6,2.0,49,0.00,,---,0.00,VWS V14.01,2013-02-15 19:24:00,
2013-02-15 11:29:00,62.8,43.9,30.41,South,180,0.0,0.0,50,0.00,,---,0.00,VWS V14.01,2013-02-15 19:29:00,
2013-02-15 11:34:00,61.9,42.0,30.41,WSW,248,0.0,1.1,48,0.00,,---,0.00,VWS V14.01,2013-02-15 19:34:00,
2013-02-15 11:39:00,62.2,42.9,30.41,North,0,0.0,1.6,49,0.00,,---,0.00,VWS V14.01,2013-02-15 19:39:00,
2013-02-15 11:44:00,62.6,43.2,30.39,East,90,2.7,3.1,49,0.00,,---,0.00,VWS V14.01,2013-02-15 19:44:00,
2013-02-15 11:49:00,63.3,43.3,30.39,South,180,0.0,0.0,48,0.00,,---,0.00,VWS V14.01,2013-02-15 19:49:00,
2013-02-15 11:55:00,64.2,45.2,30.39,ESE,112,0.0,2.0,50,0.00,,---,0.00,VWS V14.01,2013-02-15 19:55:00,
2013-02-15 12:00:00,63.5,44.0,30.39,SW,225,0.9,0.9,49,0.00,,---,0.00,VWS V14.01,2013-02-15 20:00:00,
2013-02-15 12:05:00,64.4,44.3,30.39,SSE,158,0.0,0.0,48,0.00,,---,0.00,VWS V14.01,2013-02-15 20:05:00,
2013-02-15 12:10:00,65.5,45.8,30.39,WSW,248,0.0,0.0,49,0.00,,---,0.00,VWS V14.01,2013-02-15 20:10:00,
2013-02-15 12:15:00,65.7,44.9,30.39,SSW,202,0.0,0.0,47,0.00,,---,0.00,VWS V14.01,2013-02-15 20:15:00,
2013-02-15 12:20:00,66.4,45.0,30.39,SSE,158,0.9,0.9,46,0.00,,---,0.00,VWS V14.01,2013-02-15 20:20:00,
2013-02-15 12:25:00,66.6,44.6,30.39,SW,225,0.0,1.3,45,0.00,,---,0.00,VWS V14.01,2013-02-15 20:25:00,
2013-02-15 12:30:00,66.9,44.9,30.39,South,180,1.1,1.1,45,0.00,,---,0.00,VWS V14.01,2013-02-15 20:30:00,
2013-02-15 12:35:00,67.6,45.0,30.39,SW,225,0.0,0.0,44,0.00,,---,0.00,VWS V14.01,2013-02-15 20:35:00,
2013-02-15 12:40:00,68.0,44.7,30.39,SSE,158,3.1,3.1,43,0.00,,---,0.00,VWS V14.01,2013-02-15 20:40:00,
2013-02-15 12:45:00,68.2,44.9,30.36,SSE,158,2.7,2.7,43,0.00,,---,0.00,VWS V14.01,2013-02-15 20:45:00,
2013-02-15 12:50:00,68.2,44.2,30.36,South,180,0.0,1.6,42,0.00,,---,0.00,VWS V14.01,2013-02-15 20:50:00,
2013-02-15 12:56:00,67.6,43.8,30.36,WSW,248,0.0,0.0,42,0.00,,---,0.00,VWS V14.01,2013-02-15 20:56:00,
2013-02-15 13:01:00,67.6,44.4,30.36,SW,225,0.0,0.0,43,0.00,,---,0.00,VWS V14.01,2013-02-15 21:01:00,
2013-02-15 13:06:00,67.5,42.3,30.36,ENE,68,0.9,2.5,40,0.00,,---,0.00,VWS V14.01,2013-02-15 21:06:00,
2013-02-15 13:11:00,67.8,42.6,30.36,ESE,112,1.1,1.1,40,0.00,,---,0.00,VWS V14.01,2013-02-15 21:11:00,
2013-02-15 13:16:00,67.5,40.3,30.33,SSE,158,5.4,5.4,37,0.00,,---,0.00,VWS V14.01,2013-02-15 21:16:00,
2013-02-15 13:21:00,66.6,39.5,30.33,SW,225,2.9,4.3,37,0.00,,---,0.00,VWS V14.01,2013-02-15 21:21:00,
2013-02-15 13:26:00,66.2,39.2,30.33,SE,135,0.9,3.8,37,0.00,,---,0.00,VWS V14.01,2013-02-15 21:26:00,
2013-02-15 13:31:00,65.7,39.4,30.33,South,180,2.9,2.9,38,0.00,,---,0.00,VWS V14.01,2013-02-15 21:31:00,
2013-02-15 13:36:00,65.3,39.1,30.33,NE,45,2.0,2.7,38,0.00,,---,0.00,VWS V14.01,2013-02-15 21:36:00,
2013-02-15 13:41:00,65.8,40.2,30.33,SW,225,1.6,2.9,39,0.00,,---,0.00,VWS V14.01,2013-02-15 21:41:00,
2013-02-15 13:46:00,66.2,39.9,30.33,East,90,2.5,2.5,38,0.00,,---,0.00,VWS V14.01,2013-02-15 21:46:00,
2013-02-15 13:51:00,66.4,40.0,30.33,NNE,22,0.0,5.8,38,0.00,,---,0.00,VWS V14.01,2013-02-15 21:51:00,
2013-02-15 13:56:00,66.6,40.2,30.33,ENE,68,2.5,2.5,38,0.00,,---,0.00,VWS V14.01,2013-02-15 21:56:00,
2013-02-15 14:01:00,67.5,41.7,30.33,ESE,112,0.0,1.3,39,0.00,,---,0.00,VWS V14.01,2013-02-15 22:01:00,
2013-02-15 14:06:00,67.6,40.5,30.33,NE,45,3.1,3.1,37,0.00,,---,0.00,VWS V14.01,2013-02-15 22:06:00,
2013-02-15 14:11:00,67.1,39.3,30.33,NNE,22,2.5,3.6,36,0.00,,---,0.00,VWS V14.01,2013-02-15 22:11:00,
2013-02-15 14:16:00,67.3,39.4,30.30,NNW,338,2.7,3.8,36,0.00,,---,0.00,VWS V14.01,2013-02-15 22:16:00,
2013-02-15 14:22:00,67.6,39.8,30.30,NE,45,1.3,2.9,36,0.00,,---,0.00,VWS V14.01,2013-02-15 22:22:00,
2013-02-15 14:27:00,68.0,40.1,30.30,ENE,68,0.9,1.3,36,0.00,,---,0.00,VWS V14.01,2013-02-15 22:27:00,
2013-02-15 14:32:00,68.5,41.3,30.27,SW,225,0.0,0.0,37,0.00,,---,0.00,VWS V14.01,2013-02-15 22:32:00,
2013-02-15 14:37:00,68.9,40.2,30.27,NNE,22,1.3,2.9,35,0.00,,---,0.00,VWS V14.01,2013-02-15 22:37:00,
2013-02-15 14:42:00,68.7,39.2,30.27,South,180,3.4,3.4,34,0.00,,---,0.00,VWS V14.01,2013-02-15 22:42:00,
2013-02-15 14:47:00,68.0,38.6,30.27,WSW,248,3.8,3.8,34,0.00,,---,0.00,VWS V14.01,2013-02-15 22:47:00,
2013-02-15 14:52:00,68.2,39.5,30.27,NNE,22,2.2,3.4,35,0.00,,---,0.00,VWS V14.01,2013-02-15 22:52:00,
2013-02-15 14:57:00,67.6,39.0,30.27,NNE,22,2.9,2.9,35,0.00,,---,0.00,VWS V14.01,2013-02-15 22:57:00,
2013-02-15 15:02:00,67.3,39.4,30.27,SSE,158,3.1,3.1,36,0.00,,---,0.00,VWS V14.01,2013-02-15 23:02:00,
2013-02-15 15:07:00,66.0,37.6,30.27,NE,45,1.3,1.6,35,0.00,,---,0.00,VWS V14.01,2013-02-15 23:07:00,
2013-02-15 15:12:00,65.5,38.5,30.27,NE,45,0.0,1.1,37,0.00,,---,0.00,VWS V14.01,2013-02-15 23:12:00,
2013-02-15 15:17:00,65.5,38.5,30.27,ENE,68,2.2,2.7,37,0.00,,---,0.00,VWS V14.01,2013-02-15 23:17:00,
2013-02-15 15:22:00,64.9,38.1,30.27,NNE,22,1.6,2.9,37,0.00,,---,0.00,VWS V14.01,2013-02-15 23:22:00,
2013-02-15 15:27:00,63.7,37.6,30.27,ENE,68,2.2,3.6,38,0.00,,---,0.00,VWS V14.01,2013-02-15 23:27:00,
2013-02-15 15:32:00,63.0,37.0,30.27,North,0,1.6,2.7,38,0.00,,---,0.00,VWS V14.01,2013-02-15 23:32:00,
2013-02-15 15:37:00,62.6,38.0,30.27,SSE,158,2.2,2.2,40,0.00,,---,0.00,VWS V14.01,2013-02-15 23:37:00,
2013-02-15 15:42:00,62.1,38.1,30.27,NNE,22,0.0,0.0,41,0.00,,---,0.00,VWS V14.01,2013-02-15 23:42:00,
2013-02-15 15:47:00,61.9,38.0,30.24,NNE,22,0.0,0.0,41,0.00,,---,0.00,VWS V14.01,2013-02-15 23:47:00,
2013-02-15 15:53:00,61.7,37.8,30.24,SW,225,2.0,2.0,41,0.00,,---,0.00,VWS V14.01,2013-02-15 23:53:00,
2013-02-15 15:58:00,61.7,37.8,30.24,NE,45,0.0,0.0,41,0.00,,---,0.00,VWS V14.01,2013-02-15 23:58:00,
2013-02-15 16:03:00,61.3,37.5,30.27,SW,225,1.3,3.8,41,0.00,,---,0.00,VWS V14.01,2013-02-16 00:03:00,
2013-02-15 16:08:00,61.2,37.3,30.27,South,180,2.5,2.9,41,0.00,,---,0.00,VWS V14.01,2013-02-16 00:08:00,
2013-02-15 16:13:00,60.8,37.6,30.27,SW,225,2.5,3.4,42,0.00,,---,0.00,VWS V14.01,2013-02-16 00:13:00,
2013-02-15 16:18:00,60.6,38.0,30.27,SW,225,3.1,3.1,43,0.00,,---,0.00,VWS V14.01,2013-02-16 00:18:00,
2013-02-15 16:23:00,60.4,38.4,30.27,ESE,112,1.3,3.4,44,0.00,,---,0.00,VWS V14.01,2013-02-16 00:23:00,
2013-02-15 16:28:00,60.4,38.4,30.27,ESE,112,5.8,5.8,44,0.00,,---,0.00,VWS V14.01,2013-02-16 00:28:00,
2013-02-15 16:33:00,60.3,38.3,30.27,SSE,158,1.3,1.3,44,0.00,,---,0.00,VWS V14.01,2013-02-16 00:33:00,
2013-02-15 16:38:00,59.9,38.5,30.27,South,180,0.0,0.0,45,0.00,,---,0.00,VWS V14.01,2013-02-16 00:38:00,
2013-02-15 16:43:00,59.4,38.0,30.27,SSW,202,0.0,0.0,45,0.00,,---,0.00,VWS V14.01,2013-02-16 00:43:00,
2013-02-15 16:48:00,59.2,37.9,30.27,South,180,2.7,2.7,45,0.00,,---,0.00,VWS V14.01,2013-02-16 00:48:00,
2013-02-15 16:53:00,58.8,38.1,30.27,SSW,202,0.0,0.0,46,0.00,,---,0.00,VWS V14.01,2013-02-16 00:53:00,
2013-02-15 16:58:00,58.6,37.9,30.27,WSW,248,0.0,0.0,46,0.00,,---,0.00,VWS V14.01,2013-02-16 00:58:00,
2013-02-15 17:03:00,58.5,37.8,30.27,SW,225,0.0,0.0,46,0.00,,---,0.00,VWS V14.01,2013-02-16 01:03:00,
2013-02-15 17:09:00,58.1,38.0,30.27,West,270,0.0,0.0,47,0.00,,---,0.00,VWS V14.01,2013-02-16 01:09:00,
2013-02-15 17:14:00,57.7,38.2,30.24,West,270,0.0,0.0,48,0.00,,---,0.00,VWS V14.01,2013-02-16 01:14:00,
2013-02-15 17:19:00,57.0,38.1,30.24,WSW,248,0.0,0.0,49,0.00,,---,0.00,VWS V14.01,2013-02-16 01:19:00,
2013-02-15 17:24:00,55.9,38.6,30.24,WSW,248,0.0,0.0,52,0.00,,---,0.00,VWS V14.01,2013-02-16 01:24:00,
2013-02-15 17:29:00,55.2,38.4,30.24,WSW,248,0.0,0.0,53,0.00,,---,0.00,VWS V14.01,2013-02-16 01:29:00,
2013-02-15 17:34:00,54.3,38.5,30.24,WSW,248,0.0,0.0,55,0.00,,---,0.00,VWS V14.01,2013-02-16 01:34:00,
2013-02-15 17:39:00,53.4,39.0,30.24,WSW,248,0.0,0.0,58,0.00,,---,0.00,VWS V14.01,2013-02-16 01:39:00,
2013-02-15 17:44:00,52.7,38.3,30.24,WSW,248,0.0,0.0,58,0.00,,---,0.00,VWS V14.01,2013-02-16 01:44:00,
2013-02-15 17:49:00,52.0,38.5,30.24,WSW,248,0.0,0.0,60,0.00,,---,0.00,VWS V14.01,2013-02-16 01:49:00,
2013-02-15 17:54:00,51.3,39.1,30.24,WSW,248,0.0,0.0,63,0.00,,---,0.00,VWS V14.01,2013-02-16 01:54:00,
2013-02-15 17:59:00,50.5,39.6,30.24,WSW,248,0.0,0.0,66,0.00,,---,0.00,VWS V14.01,2013-02-16 01:59:00,
2013-02-15 18:04:00,50.4,40.2,30.24,SW,225,0.0,0.0,68,0.00,,---,0.00,VWS V14.01,2013-02-16 02:04:00,
2013-02-15 18:09:00,49.8,40.4,30.24,SW,225,0.0,0.0,70,0.00,,---,0.00,VWS V14.01,2013-02-16 02:09:00,
2013-02-15 18:14:00,49.3,39.9,30.24,WSW,248,0.0,0.0,70,0.00,,---,0.00,VWS V14.01,2013-02-16 02:14:00,
2013-02-15 18:19:00,48.9,39.9,30.24,WSW,248,0.0,0.0,71,0.00,,---,0.00,VWS V14.01,2013-02-16 02:19:00,
2013-02-15 18:24:00,48.6,40.3,30.24,WSW,248,0.0,0.0,73,0.00,,---,0.00,VWS V14.01,2013-02-16 02:24:00,
2013-02-15 18:29:00,48.2,40.3,30.27,WSW,248,0.0,0.0,74,0.00,,---,0.00,VWS V14.01,2013-02-16 02:29:00,
2013-02-15 18:34:00,47.7,40.1,30.27,WSW,248,0.0,0.0,75,0.00,,---,0.00,VWS V14.01,2013-02-16 02:34:00,
2013-02-15 18:39:00,47.3,39.8,30.27,WSW,248,0.0,0.0,75,0.00,,---,0.00,VWS V14.01,2013-02-16 02:39:00,
2013-02-15 18:45:00,46.9,39.8,30.27,WSW,248,0.0,0.0,76,0.00,,---,0.00,VWS V14.01,2013-02-16 02:45:00,
2013-02-15 18:50:00,46.6,40.1,30.27,WSW,248,0.0,0.0,78,0.00,,---,0.00,VWS V14.01,2013-02-16 02:50:00,
2013-02-15 18:55:00,46.4,39.9,30.27,WSW,248,0.0,0.0,78,0.00,,---,0.00,VWS V14.01,2013-02-16 02:55:00,
2013-02-15 19:00:00,46.0,39.9,30.27,WSW,248,0.0,0.0,79,0.00,,---,0.00,VWS V14.01,2013-02-16 03:00:00,
2013-02-15 19:05:00,45.5,39.7,30.27,WSW,248,0.0,0.0,80,0.00,,---,0.00,VWS V14.01,2013-02-16 03:05:00,
2013-02-15 19:10:00,45.1,39.7,30.27,WSW,248,0.0,0.0,81,0.00,,---,0.00,VWS V14.01,2013-02-16 03:10:00,
2013-02-15 19:15:00,44.6,38.8,30.27,WSW,248,0.0,0.0,80,0.00,,---,0.00,VWS V14.01,2013-02-16 03:15:00,
2013-02-15 19:20:00,44.4,39.0,30.27,WSW,248,0.0,0.0,81,0.00,,---,0.00,VWS V14.01,2013-02-16 03:20:00,
2013-02-15 19:25:00,44.1,38.9,30.27,WSW,248,0.0,0.0,82,0.00,,---,0.00,VWS V14.01,2013-02-16 03:25:00,
2013-02-15 19:30:00,43.7,38.9,30.27,WSW,248,0.0,0.0,83,0.00,,---,0.00,VWS V14.01,2013-02-16 03:30:00,
2013-02-15 19:35:00,43.5,39.0,30.27,WSW,248,0.0,0.0,84,0.00,,---,0.00,VWS V14.01,2013-02-16 03:35:00,
2013-02-15 19:40:00,43.3,38.8,30.27,WSW,248,0.0,0.0,84,0.00,,---,0.00,VWS V14.01,2013-02-16 03:40:00,
2013-02-15 19:45:00,43.0,38.5,30.27,WSW,248,0.0,0.0,84,0.00,,---,0.00,VWS V14.01,2013-02-16 03:45:00,
2013-02-15 19:50:00,42.6,38.1,30.27,WSW,248,0.0,0.0,84,0.00,,---,0.00,VWS V14.01,2013-02-16 03:50:00,
2013-02-15 19:55:00,42.4,38.3,30.27,WSW,248,0.0,0.0,85,0.00,,---,0.00,VWS V14.01,2013-02-16 03:55:00,
2013-02-15 20:00:00,42.1,37.9,30.27,WSW,248,0.0,0.0,85,0.00,,---,0.00,VWS V14.01,2013-02-16 04:00:00,
2013-02-15 20:05:00,42.1,37.9,30.27,WSW,248,0.0,0.0,85,0.00,,---,0.00,VWS V14.01,2013-02-16 04:05:00,
2013-02-15 20:10:00,41.9,38.0,30.27,WSW,248,0.0,0.0,86,0.00,,---,0.00,VWS V14.01,2013-02-16 04:10:00,
2013-02-15 20:16:00,41.7,37.8,30.27,WSW,248,0.0,0.0,86,0.00,,---,0.00,VWS V14.01,2013-02-16 04:16:00,
2013-02-15 20:21:00,41.5,37.7,30.27,WSW,248,0.0,0.0,86,0.00,,---,0.00,VWS V14.01,2013-02-16 04:21:00,
2013-02-15 20:26:00,41.2,37.3,30.27,WSW,248,0.0,0.0,86,0.00,,---,0.00,VWS V14.01,2013-02-16 04:26:00,
2013-02-15 20:31:00,41.0,37.4,30.24,WSW,248,0.0,0.0,87,0.00,,---,0.00,VWS V14.01,2013-02-16 04:31:00,
2013-02-15 20:36:00,41.0,37.7,30.24,WSW,248,0.0,0.0,88,0.00,,---,0.00,VWS V14.01,2013-02-16 04:36:00,
2013-02-15 20:41:00,40.8,37.5,30.24,WSW,248,0.0,0.0,88,0.00,,---,0.00,VWS V14.01,2013-02-16 04:41:00,
2013-02-15 20:46:00,40.6,37.4,30.27,WSW,248,0.0,0.0,88,0.00,,---,0.00,VWS V14.01,2013-02-16 04:46:00,
2013-02-15 20:51:00,40.5,37.5,30.27,WSW,248,0.0,0.0,89,0.00,,---,0.00,VWS V14.01,2013-02-16 04:51:00,
2013-02-15 20:56:00,40.3,37.3,30.27,WSW,248,0.0,0.0,89,0.00,,---,0.00,VWS V14.01,2013-02-16 04:56:00,
2013-02-15 21:00:00,40.1,37.1,30.27,WSW,248,0.0,0.0,89,0.00,,---,0.00,VWS V14.01,2013-02-16 05:00:00,
2013-02-15 21:01:00,39.9,37.0,30.27,WSW,248,0.0,0.0,89,0.00,,---,0.00,VWS V14.01,2013-02-16 05:01:00,
2013-02-15 21:06:00,39.9,37.0,30.27,WSW,248,0.0,0.0,89,0.00,,---,0.00,VWS V14.01,2013-02-16 05:06:00,
2013-02-15 21:11:00,39.7,37.0,30.27,WSW,248,0.0,0.0,90,0.00,,---,0.00,VWS V14.01,2013-02-16 05:11:00,
2013-02-15 21:16:00,39.7,37.0,30.24,WSW,248,0.0,0.0,90,0.00,,---,0.00,VWS V14.01,2013-02-16 05:16:00,
2013-02-15 21:21:00,39.6,36.9,30.24,WSW,248,0.0,0.0,90,0.00,,---,0.00,VWS V14.01,2013-02-16 05:21:00,
2013-02-15 21:23:00,39.4,36.7,30.24,WSW,248,0.0,0.0,90,0.00,,---,0.00,VWS V14.01,2013-02-16 05:23:00,
2013-02-15 21:28:00,39.2,36.5,30.24,WSW,248,0.0,0.0,90,0.00,,---,0.00,VWS V14.01,2013-02-16 05:28:00,
2013-02-15 21:33:00,39.0,36.6,30.27,WSW,248,0.0,0.0,91,0.00,,---,0.00,VWS V14.01,2013-02-16 05:33:00,
2013-02-15 21:38:00,38.8,36.7,30.27,WSW,248,0.0,0.0,92,0.00,,---,0.00,VWS V14.01,2013-02-16 05:38:00,
2013-02-15 21:43:00,38.7,36.5,30.27,WSW,248,0.0,0.0,92,0.00,,---,0.00,VWS V14.01,2013-02-16 05:43:00,
2013-02-15 21:48:00,38.7,36.3,30.24,WSW,248,0.0,0.0,91,0.00,,---,0.00,VWS V14.01,2013-02-16 05:48:00,
2013-02-15 21:53:00,38.7,36.5,30.24,WSW,248,0.0,0.0,92,0.00,,---,0.00,VWS V14.01,2013-02-16 05:53:00,
2013-02-15 21:58:00,38.5,36.4,30.24,WSW,248,0.0,0.0,92,0.00,,---,0.00,VWS V14.01,2013-02-16 05:58:00,
2013-02-15 22:03:00,38.3,36.2,30.27,WSW,248,0.0,0.0,92,0.00,,---,0.00,VWS V14.01,2013-02-16 06:03:00,
2013-02-15 22:08:00,38.1,36.0,30.27,WSW,248,0.0,0.0,92,0.00,,---,0.00,VWS V14.01,2013-02-16 06:08:00,
2013-02-15 22:13:00,38.1,36.3,30.27,WSW,248,0.0,0.0,93,0.00,,---,0.00,VWS V14.01,2013-02-16 06:13:00,
2013-02-15 22:18:00,37.8,35.9,30.27,WSW,248,0.0,0.0,93,0.00,,---,0.00,VWS V14.01,2013-02-16 06:18:00,
2013-02-15 22:23:00,37.8,36.2,30.27,WSW,248,0.0,0.0,94,0.00,,---,0.00,VWS V14.01,2013-02-16 06:23:00,
2013-02-15 22:28:00,37.8,36.2,30.27,SW,225,0.0,0.0,94,0.00,,---,0.00,VWS V14.01,2013-02-16 06:28:00,
2013-02-15 22:33:00,37.6,36.0,30.27,SW,225,0.0,0.0,94,0.00,,---,0.00,VWS V14.01,2013-02-16 06:33:00,
2013-02-15 22:39:00,37.4,35.8,30.27,SW,225,0.0,0.0,94,0.00,,---,0.00,VWS V14.01,2013-02-16 06:39:00,
2013-02-15 22:44:00,37.2,35.7,30.24,WSW,248,0.0,0.0,94,0.00,,---,0.00,VWS V14.01,2013-02-16 06:44:00,
2013-02-15 22:49:00,37.2,35.7,30.24,WSW,248,0.0,0.0,94,0.00,,---,0.00,VWS V14.01,2013-02-16 06:49:00,
2013-02-15 22:54:00,37.2,35.7,30.24,WSW,248,0.0,0.0,94,0.00,,---,0.00,VWS V14.01,2013-02-16 06:54:00,
2013-02-15 22:59:00,36.9,35.6,30.27,WSW,248,0.0,0.0,95,0.00,,---,0.00,VWS V14.01,2013-02-16 06:59:00,
2013-02-15 23:04:00,36.7,35.4,30.27,WSW,248,0.0,0.0,95,0.00,,---,0.00,VWS V14.01,2013-02-16 07:04:00,
2013-02-15 23:09:00,36.5,35.2,30.27,WSW,248,0.0,0.0,95,0.00,,---,0.00,VWS V14.01,2013-02-16 07:09:00,
2013-02-15 23:14:00,36.7,35.4,30.24,WNW,292,0.0,0.0,95,0.00,,---,0.00,VWS V14.01,2013-02-16 07:14:00,
2013-02-15 23:19:00,36.7,35.4,30.24,WNW,292,0.0,0.0,95,0.00,,---,0.00,VWS V14.01,2013-02-16 07:19:00,
2013-02-15 23:24:00,36.3,35.0,30.24,WNW,292,0.0,0.0,95,0.00,,---,0.00,VWS V14.01,2013-02-16 07:24:00,
2013-02-15 23:29:00,36.1,34.8,30.27,WNW,292,0.0,0.0,95,0.00,,---,0.00,VWS V14.01,2013-02-16 07:29:00,
2013-02-15 23:34:00,36.0,34.7,30.27,WNW,292,0.0,0.0,95,0.00,,---,0.00,VWS V14.01,2013-02-16 07:34:00,
2013-02-15 23:39:00,36.1,34.8,30.27,West,270,0.0,0.0,95,0.00,,---,0.00,VWS V14.01,2013-02-16 07:39:00,
2013-02-15 23:45:00,36.1,34.8,30.27,NNW,338,0.0,0.0,95,0.00,,---,0.00,VWS V14.01,2013-02-16 07:45:00,
2013-02-15 23:50:00,36.1,34.8,30.27,WNW,292,0.0,0.0,95,0.00,,---,0.00,VWS V14.01,2013-02-16 07:50:00,
2013-02-15 23:55:00,36.0,34.7,30.27,WNW,292,0.0,0.0,95,0.00,,---,0.00,VWS V14.01,2013-02-16 07:55:00,